SCP
0 0 0 0 0 0 0 0 0 0 0 0 0 0 -0 0 0 0 0 0 0 -0 0 0 -0 -0 -0 -0 -0 -0 -0 -0 -0 -0 -0 -0 -0 -0 -0 -0 -0 -0 -0 -0 -0 -0 -0 -0 -0
0 0 0 0 0 0 0 0 0 0 0 0 0 0 0 0 0 0 0 -0 0 0 0 0 0 -0 -0 -0 -0 -0 -0 -0 -0 -0 -0 -0 -0 -0 -0 -0 -0 -0 -0 -0 -0 -0 -0 -0 -0
0 0 0 0 0 0 0 0 0 0 0 0 0 0 0 0 0 0 0 0 0 0 0 0 0 -0 -0 -0 -0 -0 -0 -0 -0 -0 -0 -0 -0 -0 -0 -0 -0 -0 -0 -0 -0 0 0 0 0
0 0 0 0 0 0 0 0 0 0 0 0 0 0 0 0 0 0 0 0 0 0 0 0 -0 -0 -0 -0 -0 -0 -0 -0 -0 -0 -0 -0 -0 -0 0 0 0 0 0 0 0 0 0 0 0
0 0 0 0 0 0 0 0 0 0 0 0 0 0 0 0 0 0 -0 -0 -0 0 0 0 0 0 -0 -0 -0 -0 -0 -0 -0 -0 -0 -0 -0 -0 0 0 0 0 0 0 0 0 0 0 -0
0 0 0 0 0 0 0 0 0 0 0 0 0 0 0 0 0 0 0 0 0 0 0 0 0 0 0 0 0 0 -0 0 0 0 0 0 0 0 0 0 0 0 0 0 0 0 0 0 0
0 0 0 0 0 0 0 0 0 0 0 0 0 0 0 0 0 0 0 0 0 0 0 0 0 0 0 0 0 0 0 0 0 0 0 0 0 0 0 0 0 0 0 0 0 0 0 0 0
0 0 0 0 0 0 0 0 0 0 0 0 0 0 0 0 0 0 0 0 0 0 0 0 0 0 0 0 0 0 0 0 0 0 0 0 0 0 0 0 0 0 0 0 0 0 0 0 0
0 0 0 0 0 0 0 0 0 0 0 0 0 0 0 0 0 0 0 0 0 0 0 0 0 0 0 0 0 0 0 0 0 0 0 0 0 0 0 0 0 0 0 0 0 0 0 0 0
0 0 0 0 0 0 0 0 0 0 0 0 0 0 0 0 0 0 0 0 0 0 0 0 0 0 0 0 0 0 0 0 0 0 0 0 0 0 0 0 0 0 0 0 0 0 0 0 0
0 0 0 0 0 0 0 0 0 0 0 0 0 0 0 0 0 0 0 0 -0 0 0 0 0 0 0 0 0 0 0 0 0 0 0 0 0 0 0 0 0 0 0 0 0 0 0 0 0
0 0 0 0 0 0 0 0 0 0 0 0 0 0 0 0 0 0 0 0 0 0 0 0 0 0 0 0 0 0 0 0 0 0 0 0 0 0 0 0 0 0 0 0 0 0 0 0 0
0 0 0 0 0 0 0 0 0 0 0 0 0 0 0 0 0 0 0 0 0 0 0 0 0 0 0 0 0 0 0 0 0 0 0 0 0 0 0 0 0 0 0 0 0 0 0 0 0
0 0 0 0 0 0 0 0 0 -0 0 0 0 0 0 0 0 0 0 0 0 0 0 0 0 0 0 0 0 0 0 0 0 0 0 0 0 0 0 0 0 0 0 0 0 0 0 0 0
0 0 0 0 0 0 0 -0 0 0 0 0 0 0 0 0 0 0 0 0 0 0 0 0 0 0 0 0 0 0 0 0 0 0 0 0 0 0 0 0 0 0 0 0 0 0 0 0 0
0 0 0 0 0 0 0 -0 0 0 0 0 0 0 0 0 0 0 0 0 0 0 0 0 0 0 0 0 0 0 0 0 0 0 0 0 0 0 0 0 0 0 0 0 0 0 0 0 0
0 0 0 -0 0 0 0 0 0 0 0 0 0 0 0 0 0 0 0 0 0 0 0 0 0 0 0 0 0 0 0 0 0 0 0 0 0 0 0 0 0 0 0 0 0 0 0 0 0
0 0 0 0 0 0 0 0 0 0 0 0 0 0 0 0 0 0 0 0 0 0 0 0 0 0 0 0 0 0 0 0 0 0 0 0 0 0 0 0 0 0 0 0 0 0 0 0 0
0 0 0 0 0 0 0 0 0 0 0 0 0 0 0 0 0 0 0 0 0 0 0 0 0 0 0 0 0 0 0 0 0 0 0 0 0 0 0 0 0 0 0 0 0 0 0 0 0
0 0 0 0 0 0 0 0 0 0 0 0 0 0 0 0 0 0 0 0 0 0 0 0 0 0 0 0 0 0 0 0 0 0 0 0 0 0 0 0 0 0 0 0 0 0 0 0 0
0 0 0 0 0 0 0 -0 0 0 0 0 0 0 0 0 0 0 0 0 0 0 0 0 0 0 0 0 0 0 0 0 0 0 0 0 0 0 0 0 0 0 0 0 0 0 0 0 0
0 0 0 0 0 0 0 -0 0 0 0 0 0 0 0 0 0 0 0 0 0 0 0 0 0 0 0 0 0 0 0 0 0 0 0 0 0 0 0 0 0 0 0 0 0 0 0 0 0
0 0 0 0 0 0 0 0 0 0 0 0 0 0 0 0 0 0 0 0 0 0 0 0 0 0 0 0 0 0 0 0 0 0 0 0 0 0 0 0 0 0 0 0 0 0 0 0 0
0 0 0 0 0 0 0 0 -0 0 0 0 0 0 0 0 0 0 0 0 0 0 0 0 0 0 0 0 0 0 0 0 0 0 0 0 0 0 0 0 0 0 0 0 0 0 0 0 0
0 0 0 0 0 0 0 0 0 0 0 0 0 0 0 0 0 0 0 0 0 0 0 0 0 0 0 0 0 0 0 0 0 0 0 0 0 0 0 0 0 0 0 0 0 0 0 0 0
0 0 0 0 0 0 0 0 0 0 0 0 0 0 0 0 0 0 0 0 0 0 0 0 0 0 0 0 0 0 0 0 0 0 0 0 0 0 0 0 0 0 0 0 0 0 0 0 0
0 0 0 0 0 0 0 0 0 0 0 0 0 0 0 0 0 0 0 0 0 0 0 0 0 0 0 0 0 0 0 0 0 0 0 0 0 0 0 0 0 0 0 0 0 0 0 0 0
0 0 0 0 0 0 0 0 0 0 0 0 0 0 0 0 0 -0 -0 0 0 0 0 0 0 0 0 0 0 0 0 0 0 0 0 0 0 0 0 0 0 0 0 0 0 0 0 0 0
0 0 0 0 0 0 0 0 0 0 0 0 0 0 0 0 -0 -0 -0 -0 0 0 0 0 0 0 0 0 0 0 0 0 0 0 0 0 0 0 0 0 0 0 0 0 0 0 0 0 0
0 0 0 0 0 0 0 0 0 0 0 0 0 -0 0 0 0 -0 -0 -0 -0 0 0 0 0 0 0 0 0 0 0 0 0 0 0 0 0 0 0 0 0 0 0 0 0 0 0 0 0
Wind_Speed_500mb
9 7 6 5 7 9 7 11 5 5 4 6 15 11 17 10 12 9 8 25 23 38 39 40 38 36 34 31 30 28 25 24 24 20 21 25 22 18 17 15 14 14 15 16 16 16 15 13 15
10 7 3 3 7 4 10 9 13 11 6 18 15 10 5 12 14 6 18 26 25 32 38 39 41 41 37 39 37 36 34 32 30 30 26 20 21 19 17 17 17 18 19 20 20 21 20 19 19
9 6 3 8 6 9 10 10 10 5 15 11 8 11 7 7 19 13 23 25 26 33 38 38 40 39 38 36 33 34 32 31 31 28 25 23 21 21 21 20 20 19 18 18 19 19 18 18 18
6 4 6 7 12 14 13 12 9 6 9 15 10 7 10 19 6 20 26 25 30 35 40 40 39 39 38 37 35 35 31 32 29 26 25 25 23 23 19 17 16 16 16 16 14 13 12 13 14
7 1 4 2 11 12 11 19 19 11 5 11 16 8 10 14 30 16 18 25 33 38 44 42 41 39 37 36 34 33 34 32 28 26 24 22 19 18 17 17 16 14 12 9 8 8 8 9 11
1 3 4 7 10 12 13 22 16 12 12 6 11 7 12 21 26 27 23 24 32 36 45 44 44 43 40 37 34 32 31 29 27 25 22 20 18 18 17 16 13 11 7 5 5 6 8 12 14
8 7 7 7 10 12 10 10 13 12 8 15 10 8 11 21 25 29 27 29 33 39 46 46 44 43 41 38 36 34 33 30 28 25 23 21 20 18 17 16 14 12 9 6 6 9 12 15 16
4 8 4 8 6 11 10 10 5 23 21 13 22 12 11 9 27 32 34 35 39 44 49 50 47 46 45 44 41 38 35 33 31 28 26 25 22 21 18 17 15 12 10 7 8 11 13 16 18
6 6 6 10 8 10 3 6 7 10 14 16 20 33 23 18 26 37 41 44 48 52 54 56 54 51 50 49 46 43 41 38 34 33 30 28 26 24 21 19 15 12 10 10 11 13 16 18 20
8 7 16 12 7 8 9 8 19 9 13 16 32 45 45 40 36 43 46 48 52 54 57 61 61 58 56 55 53 50 47 43 40 37 35 33 30 28 24 22 19 17 17 17 17 17 17 18 20
12 12 11 15 28 20 11 13 22 11 13 42 39 51 53 52 50 54 56 56 54 54 59 61 62 62 62 61 58 55 52 50 47 44 42 39 37 32 29 26 24 21 21 19 18 19 20 22 24
7 28 23 15 25 14 10 14 14 34 66 64 52 42 42 52 62 66 65 63 60 61 62 62 64 64 66 64 64 60 58 54 51 48 47 44 40 37 33 30 27 24 22 20 20 20 20 22 24
10 10 28 46 40 50 41 43 24 48 80 71 63 62 62 60 62 65 62 63 64 68 66 67 67 68 69 70 69 67 64 60 55 53 51 48 45 41 38 34 30 27 24 22 21 19 20 22 22
6 19 33 31 40 28 15 41 10 78 68 62 53 61 70 73 76 70 71 72 74 69 70 69 71 72 73 74 74 73 69 64 63 60 57 53 51 48 43 38 34 30 26 24 23 22 20 19 21
16 16 18 16 31 18 20 26 23 98 70 74 76 65 63 67 72 83 84 80 78 76 71 74 74 76 79 78 77 78 74 71 69 65 62 58 55 52 47 42 37 33 29 27 26 23 23 23 23
9 3 10 3 15 8 23 28 35 65 43 59 71 70 64 61 67 71 76 81 82 84 83 78 80 83 83 83 81 82 80 77 74 70 67 64 61 57 52 46 40 37 34 32 30 27 28 28 26
4 11 15 24 29 12 15 18 24 31 21 43 58 61 60 61 68 69 72 74 80 83 87 84 83 86 87 87 86 86 82 82 79 76 73 70 65 61 56 50 46 43 39 36 33 31 31 31 29
17 11 12 14 12 12 12 28 28 67 25 53 74 81 83 87 91 86 83 77 81 86 86 86 86 86 88 91 91 90 85 85 84 82 80 75 70 66 60 56 53 48 42 40 37 34 32 31 29
6 10 16 15 15 8 22 36 31 56 52 51 70 78 99 109 107 100 99 101 90 92 93 89 88 87 91 99 101 99 97 93 91 89 85 80 75 69 64 61 57 52 48 44 41 36 34 32 31
19 31 35 34 38 12 30 45 34 33 39 76 82 76 82 98 114 111 107 104 102 99 97 92 89 94 98 100 102 101 98 97 94 91 89 85 79 74 70 66 61 56 54 50 45 40 36 33 29
15 13 35 30 17 11 21 38 28 24 56 78 91 92 105 84 97 107 101 97 85 87 94 92 95 95 101 105 104 104 101 99 98 99 92 91 84 79 75 70 66 62 58 54 50 45 40 35 31
32 22 28 25 6 19 4 31 12 19 25 18 65 84 69 90 101 106 100 94 87 80 75 75 79 86 98 105 109 108 108 105 104 96 92 90 88 84 79 74 70 66 62 60 53 47 43 39 33
23 12 15 7 8 12 13 9 4 7 10 28 39 70 84 80 86 88 84 90 78 63 62 69 80 82 91 99 106 107 107 102 94 93 91 90 89 86 81 78 75 72 67 61 57 53 47 41 35
3 4 4 8 7 11 15 15 66 12 15 10 17 52 61 71 77 75 85 83 65 51 61 69 75 82 88 90 100 103 103 100 94 91 90 90 90 87 86 83 78 73 70 67 61 56 52 45 40
8 9 8 6 3 20 8 16 54 12 11 17 21 47 67 76 79 87 91 93 69 56 64 69 74 83 89 87 89 95 98 94 89 89 89 85 87 92 90 85 82 79 74 70 67 63 56 49 44
18 21 11 14 22 31 7 15 31 25 20 31 37 50 52 63 75 84 86 83 73 63 59 65 75 80 78 76 83 89 92 90 89 87 87 84 83 82 81 84 81 78 74 73 70 65 60 55 51
8 12 17 10 7 5 12 29 24 51 57 12 24 29 38 36 47 64 70 54 54 59 54 64 68 69 67 70 78 83 87 90 89 87 86 84 82 79 79 79 78 77 75 74 71 68 65 61 55
12 4 3 2 6 19 18 23 22 45 45 28 19 22 35 32 43 57 67 56 46 44 49 52 56 60 59 61 70 78 84 90 90 87 85 85 83 83 81 80 77 76 75 75 74 72 69 66 60
8 8 9 4 13 33 39 25 20 51 62 39 22 29 33 57 79 58 53 57 46 37 41 40 47 55 56 55 64 76 83 87 86 86 86 89 90 86 85 82 79 78 79 79 78 76 73 70 64
10 30 36 25 23 22 33 40 19 38 37 41 38 50 58 79 84 48 45 39 58 56 41 47 47 49 50 57 61 72 78 83 85 84 87 93 95 93 88 84 81 80 82 83 82 81 79 75 69
Wind_Direction_500mb
227 237 283 310 40 61 265 261 255 238 227 178 147 170 190 179 170 209 183 175 185 184 189 188 188 186 188 190 177 178 175 180 185 197 199 214 221 218 220 227 233 238 249 257 267 271 280 285 284
230 232 247 84 90 26 269 253 236 217 198 149 146 136 175 225 214 227 174 180 182 190 191 192 196 196 194 202 196 198 199 204 206 211 221 221 220 227 230 224 229 241 256 269 277 282 283 280 279
217 219 210 99 127 195 226 233 234 265 184 174 183 214 219 224 224 217 206 201 197 193 195 197 200 204 207 214 216 215 215 215 218 219 223 231 239 238 237 242 244 248 253 262 273 282 288 287 280
196 191 63 100 236 255 216 251 219 183 219 228 227 238 241 226 218 219 219 206 200 195 197 200 202 209 210 211 211 216 216 221 227 228 230 232 233 238 241 242 243 253 265 271 276 282 290 298 305
191 142 55 264 257 261 250 259 203 188 221 217 203 267 245 242 227 224 213 212 207 201 198 202 205 208 213 214 217 219 221 228 231 233 231 228 224 225 230 236 245 249 250 259 275 294 307 313 314
153 72 43 258 251 267 276 250 187 202 220 232 216 239 255 245 231 228 220 220 206 207 203 204 207 210 215 219 219 220 223 222 220 221 224 226 223 223 221 221 222 226 233 251 277 298 318 329 328
126 92 229 260 259 294 257 201 186 198 230 234 224 192 257 248 229 222 222 216 213 209 211 213 214 214 218 220 219 218 221 225 227 224 222 222 221 219 210 205 203 205 213 238 291 321 330 332 333
145 99 281 253 264 277 319 195 308 221 246 236 212 232 254 273 231 217 217 217 216 216 215 219 220 219 219 219 220 222 224 226 227 226 225 222 219 214 209 211 213 216 232 264 297 313 320 326 330
165 64 244 252 196 258 229 218 237 250 243 221 220 242 252 264 219 218 220 219 219 219 220 220 222 223 221 220 221 221 223 226 226 226 225 223 220 220 218 222 224 237 256 278 293 307 320 329 334
159 155 225 218 228 255 294 248 271 254 241 246 246 249 251 253 240 230 232 231 228 226 224 223 223 224 224 222 222 221 223 224 225 226 226 223 222 223 226 233 241 254 269 283 295 306 316 324 331
185 217 218 256 246 271 267 257 257 235 256 247 251 272 257 249 245 242 242 242 249 237 230 230 227 226 226 227 226 224 224 223 224 223 222 222 222 224 227 232 241 252 261 272 285 299 312 322 324
226 246 237 263 271 273 249 264 247 240 262 278 277 274 263 255 250 250 249 250 247 243 239 236 234 231 230 228 229 229 229 228 226 226 224 224 224 224 227 233 240 250 261 274 288 297 304 311 316
224 257 266 272 276 275 275 264 253 266 276 280 273 268 265 259 257 256 255 254 249 245 243 240 237 236 234 231 231 229 229 229 229 228 228 226 225 226 228 232 239 248 258 268 274 281 292 301 307
282 277 278 280 277 264 233 272 260 273 281 283 275 268 267 260 262 259 250 251 248 248 245 244 241 239 237 235 233 232 230 228 228 228 228 227 227 227 229 234 239 246 254 262 268 275 283 291 299
283 307 308 216 256 232 198 287 232 270 277 280 282 275 271 266 263 261 262 259 259 255 250 246 244 241 239 238 235 233 232 229 229 229 228 228 228 229 229 231 237 240 246 253 260 270 281 289 298
329 319 321 313 123 239 164 265 261 277 270 277 281 280 277 272 271 268 266 265 259 256 252 249 245 243 241 239 237 235 232 231 231 231 230 230 230 230 231 233 238 245 251 258 265 275 283 288 292
301 240 225 306 204 181 187 248 275 273 258 273 285 286 283 282 279 273 270 268 265 263 256 251 247 244 243 239 238 237 234 232 231 230 230 230 230 231 232 234 237 241 245 250 257 265 273 282 289
228 219 249 233 273 184 227 248 279 283 284 274 278 278 276 273 272 273 270 270 273 265 258 252 249 246 241 240 237 234 233 232 232 231 231 230 230 231 231 233 234 238 242 248 254 261 270 277 284
166 225 238 257 262 263 249 265 256 267 278 269 268 266 270 270 272 271 269 265 266 267 257 251 248 246 239 236 234 231 230 230 230 229 230 230 230 231 232 233 235 239 242 245 250 258 266 275 284
243 258 266 272 269 256 269 267 262 250 254 260 267 268 265 268 275 276 274 269 261 260 260 253 249 246 244 239 237 234 232 230 232 230 228 229 230 231 232 234 236 239 239 243 249 255 261 268 278
227 230 260 262 306 240 284 278 240 253 248 256 264 264 268 266 270 281 279 278 275 260 254 253 256 254 246 239 233 231 230 230 229 227 227 228 229 231 232 233 235 236 239 242 245 249 256 264 271
270 227 255 268 327 278 22 296 176 236 234 240 252 265 271 279 281 282 283 281 279 271 262 255 253 249 243 236 233 230 231 229 232 232 231 230 230 231 232 233 235 237 239 240 244 247 252 258 265
245 198 231 199 205 322 193 258 192 178 229 241 253 261 273 285 286 291 292 290 287 280 271 263 251 244 241 236 234 231 230 232 236 234 232 231 231 232 233 234 235 236 238 240 242 245 251 255 260
48 91 88 55 118 263 202 168 284 189 208 241 249 259 275 289 292 292 298 295 294 276 262 250 248 247 240 234 232 231 232 232 232 233 232 232 231 232 233 233 235 237 238 240 242 244 247 251 255
144 82 304 318 141 233 98 178 257 303 247 223 240 266 277 280 288 291 295 299 300 285 257 247 243 242 238 232 230 230 232 234 236 236 235 233 231 231 233 233 234 236 238 239 240 242 244 247 251
190 168 185 224 259 267 101 238 267 268 268 263 268 272 287 295 308 312 307 299 294 283 252 247 245 241 238 234 230 228 230 233 235 237 237 237 237 238 238 237 237 238 239 240 240 241 242 244 246
169 188 240 272 347 294 248 270 293 277 286 231 278 303 312 338 354 349 343 312 283 268 251 245 246 245 243 238 232 230 230 232 233 235 236 237 239 241 241 239 239 238 238 239 240 240 242 242 244
197 297 287 156 245 246 220 241 251 282 270 271 325 298 306 320 350 357 356 340 301 281 268 255 256 255 251 243 238 235 233 234 236 236 236 238 239 240 241 239 236 235 235 237 238 239 239 239 241
232 245 222 252 209 251 258 253 231 261 269 298 274 270 296 315 318 322 350 346 322 298 288 278 263 258 256 253 245 240 240 238 240 241 241 241 241 241 241 240 236 233 232 234 235 237 237 238 239
229 239 237 241 256 245 258 251 255 264 280 290 286 292 301 302 295 308 329 325 323 317 306 289 270 258 254 253 251 249 247 244 241 242 244 246 246 244 243 241 237 234 232 233 233 233 234 235 237
Wind_Speed_850mb
9 7 6 5 7 9 7 11 5 5 4 6 15 11 17 10 12 9 8 25 23 38 39 40 38 36 34 31 30 28 25 24 24 20 21 25 22 18 17 15 14 14 15 16 16 16 15 13 15
10 7 3 3 7 4 10 9 13 11 6 18 15 10 5 12 14 6 18 26 25 32 38 39 41 41 37 39 37 36 34 32 30 30 26 20 21 19 17 17 17 18 19 20 20 21 20 19 19
9 6 3 8 6 9 10 10 10 5 15 11 8 11 7 7 19 13 23 25 26 33 38 38 40 39 38 36 33 34 32 31 31 28 25 23 21 21 21 20 20 19 18 18 19 19 18 18 18
6 4 6 7 12 14 13 12 9 6 9 15 10 7 10 19 6 20 26 25 30 35 40 40 39 39 38 37 35 35 31 32 29 26 25 25 23 23 19 17 16 16 16 16 14 13 12 13 14
7 1 4 2 11 12 11 19 19 11 5 11 16 8 10 14 30 16 18 25 33 38 44 42 41 39 37 36 34 33 34 32 28 26 24 22 19 18 17 17 16 14 12 9 8 8 8 9 11
1 3 4 7 10 12 13 22 16 12 12 6 11 7 12 21 26 27 23 24 32 36 45 44 44 43 40 37 34 32 31 29 27 25 22 20 18 18 17 16 13 11 7 5 5 6 8 12 14
8 7 7 7 10 12 10 10 13 12 8 15 10 8 11 21 25 29 27 29 33 39 46 46 44 43 41 38 36 34 33 30 28 25 23 21 20 18 17 16 14 12 9 6 6 9 12 15 16
4 8 4 8 6 11 10 10 5 23 21 13 22 12 11 9 27 32 34 35 39 44 49 50 47 46 45 44 41 38 35 33 31 28 26 25 22 21 18 17 15 12 10 7 8 11 13 16 18
6 6 6 10 8 10 3 6 7 10 14 16 20 33 23 18 26 37 41 44 48 52 54 56 54 51 50 49 46 43 41 38 34 33 30 28 26 24 21 19 15 12 10 10 11 13 16 18 20
8 7 16 12 7 8 9 8 19 9 13 16 32 45 45 40 36 43 46 48 52 54 57 61 61 58 56 55 53 50 47 43 40 37 35 33 30 28 24 22 19 17 17 17 17 17 17 18 20
12 12 11 15 28 20 11 13 22 11 13 42 39 51 53 52 50 54 56 56 54 54 59 61 62 62 62 61 58 55 52 50 47 44 42 39 37 32 29 26 24 21 21 19 18 19 20 22 24
7 28 23 15 25 14 10 14 14 34 66 64 52 42 42 52 62 66 65 63 60 61 62 62 64 64 66 64 64 60 58 54 51 48 47 44 40 37 33 30 27 24 22 20 20 20 20 22 24
10 10 28 46 40 50 41 43 24 48 80 71 63 62 62 60 62 65 62 63 64 68 66 67 67 68 69 70 69 67 64 60 55 53 51 48 45 41 38 34 30 27 24 22 21 19 20 22 22
6 19 33 31 40 28 15 41 10 78 68 62 53 61 70 73 76 70 71 72 74 69 70 69 71 72 73 74 74 73 69 64 63 60 57 53 51 48 43 38 34 30 26 24 23 22 20 19 21
16 16 18 16 31 18 20 26 23 98 70 74 76 65 63 67 72 83 84 80 78 76 71 74 74 76 79 78 77 78 74 71 69 65 62 58 55 52 47 42 37 33 29 27 26 23 23 23 23
9 3 10 3 15 8 23 28 35 65 43 59 71 70 64 61 67 71 76 81 82 84 83 78 80 83 83 83 81 82 80 77 74 70 67 64 61 57 52 46 40 37 34 32 30 27 28 28 26
4 11 15 24 29 12 15 18 24 31 21 43 58 61 60 61 68 69 72 74 80 83 87 84 83 86 87 87 86 86 82 82 79 76 73 70 65 61 56 50 46 43 39 36 33 31 31 31 29
17 11 12 14 12 12 12 28 28 67 25 53 74 81 83 87 91 86 83 77 81 86 86 86 86 86 88 91 91 90 85 85 84 82 80 75 70 66 60 56 53 48 42 40 37 34 32 31 29
6 10 16 15 15 8 22 36 31 56 52 51 70 78 99 109 107 100 99 101 90 92 93 89 88 87 91 99 101 99 97 93 91 89 85 80 75 69 64 61 57 52 48 44 41 36 34 32 31
19 31 35 34 38 12 30 45 34 33 39 76 82 76 82 98 114 111 107 104 102 99 97 92 89 94 98 100 102 101 98 97 94 91 89 85 79 74 70 66 61 56 54 50 45 40 36 33 29
15 13 35 30 17 11 21 38 28 24 56 78 91 92 105 84 97 107 101 97 85 87 94 92 95 95 101 105 104 104 101 99 98 99 92 91 84 79 75 70 66 62 58 54 50 45 40 35 31
32 22 28 25 6 19 4 31 12 19 25 18 65 84 69 90 101 106 100 94 87 80 75 75 79 86 98 105 109 108 108 105 104 96 92 90 88 84 79 74 70 66 62 60 53 47 43 39 33
23 12 15 7 8 12 13 9 4 7 10 28 39 70 84 80 86 88 84 90 78 63 62 69 80 82 91 99 106 107 107 102 94 93 91 90 89 86 81 78 75 72 67 61 57 53 47 41 35
3 4 4 8 7 11 15 15 66 12 15 10 17 52 61 71 77 75 85 83 65 51 61 69 75 82 88 90 100 103 103 100 94 91 90 90 90 87 86 83 78 73 70 67 61 56 52 45 40
8 9 8 6 3 20 8 16 54 12 11 17 21 47 67 76 79 87 91 93 69 56 64 69 74 83 89 87 89 95 98 94 89 89 89 85 87 92 90 85 82 79 74 70 67 63 56 49 44
18 21 11 14 22 31 7 15 31 25 20 31 37 50 52 63 75 84 86 83 73 63 59 65 75 80 78 76 83 89 92 90 89 87 87 84 83 82 81 84 81 78 74 73 70 65 60 55 51
8 12 17 10 7 5 12 29 24 51 57 12 24 29 38 36 47 64 70 54 54 59 54 64 68 69 67 70 78 83 87 90 89 87 86 84 82 79 79 79 78 77 75 74 71 68 65 61 55
12 4 3 2 6 19 18 23 22 45 45 28 19 22 35 32 43 57 67 56 46 44 49 52 56 60 59 61 70 78 84 90 90 87 85 85 83 83 81 80 77 76 75 75 74 72 69 66 60
8 8 9 4 13 33 39 25 20 51 62 39 22 29 33 57 79 58 53 57 46 37 41 40 47 55 56 55 64 76 83 87 86 86 86 89 90 86 85 82 79 78 79 79 78 76 73 70 64
10 30 36 25 23 22 33 40 19 38 37 41 38 50 58 79 84 48 45 39 58 56 41 47 47 49 50 57 61 72 78 83 85 84 87 93 95 93 88 84 81 80 82 83 82 81 79 75 69
Wind_Direction_850mb
227 237 283 310 40 61 265 261 255 238 227 178 147 170 190 179 170 209 183 175 185 184 189 188 188 186 188 190 177 178 175 180 185 197 199 214 221 218 220 227 233 238 249 257 267 271 280 285 284
230 232 247 84 90 26 269 253 236 217 198 149 146 136 175 225 214 227 174 180 182 190 191 192 196 196 194 202 196 198 199 204 206 211 221 221 220 227 230 224 229 241 256 269 277 282 283 280 279
217 219 210 99 127 195 226 233 234 265 184 174 183 214 219 224 224 217 206 201 197 193 195 197 200 204 207 214 216 215 215 215 218 219 223 231 239 238 237 242 244 248 253 262 273 282 288 287 280
196 191 63 100 236 255 216 251 219 183 219 228 227 238 241 226 218 219 219 206 200 195 197 200 202 209 210 211 211 216 216 221 227 228 230 232 233 238 241 242 243 253 265 271 276 282 290 298 305
191 142 55 264 257 261 250 259 203 188 221 217 203 267 245 242 227 224 213 212 207 201 198 202 205 208 213 214 217 219 221 228 231 233 231 228 224 225 230 236 245 249 250 259 275 294 307 313 314
153 72 43 258 251 267 276 250 187 202 220 232 216 239 255 245 231 228 220 220 206 207 203 204 207 210 215 219 219 220 223 222 220 221 224 226 223 223 221 221 222 226 233 251 277 298 318 329 328
126 92 229 260 259 294 257 201 186 198 230 234 224 192 257 248 229 222 222 216 213 209 211 213 214 214 218 220 219 218 221 225 227 224 222 222 221 219 210 205 203 205 213 238 291 321 330 332 333
145 99 281 253 264 277 319 195 308 221 246 236 212 232 254 273 231 217 217 217 216 216 215 219 220 219 219 219 220 222 224 226 227 226 225 222 219 214 209 211 213 216 232 264 297 313 320 326 330
165 64 244 252 196 258 229 218 237 250 243 221 220 242 252 264 219 218 220 219 219 219 220 220 222 223 221 220 221 221 223 226 226 226 225 223 220 220 218 222 224 237 256 278 293 307 320 329 334
159 155 225 218 228 255 294 248 271 254 241 246 246 249 251 253 240 230 232 231 228 226 224 223 223 224 224 222 222 221 223 224 225 226 226 223 222 223 226 233 241 254 269 283 295 306 316 324 331
185 217 218 256 246 271 267 257 257 235 256 247 251 272 257 249 245 242 242 242 249 237 230 230 227 226 226 227 226 224 224 223 224 223 222 222 222 224 227 232 241 252 261 272 285 299 312 322 324
226 246 237 263 271 273 249 264 247 240 262 278 277 274 263 255 250 250 249 250 247 243 239 236 234 231 230 228 229 229 229 228 226 226 224 224 224 224 227 233 240 250 261 274 288 297 304 311 316
224 257 266 272 276 275 275 264 253 266 276 280 273 268 265 259 257 256 255 254 249 245 243 240 237 236 234 231 231 229 229 229 229 228 228 226 225 226 228 232 239 248 258 268 274 281 292 301 307
282 277 278 280 277 264 233 272 260 273 281 283 275 268 267 260 262 259 250 251 248 248 245 244 241 239 237 235 233 232 230 228 228 228 228 227 227 227 229 234 239 246 254 262 268 275 283 291 299
283 307 308 216 256 232 198 287 232 270 277 280 282 275 271 266 263 261 262 259 259 255 250 246 244 241 239 238 235 233 232 229 229 229 228 228 228 229 229 231 237 240 246 253 260 270 281 289 298
329 319 321 313 123 239 164 265 261 277 270 277 281 280 277 272 271 268 266 265 259 256 252 249 245 243 241 239 237 235 232 231 231 231 230 230 230 230 231 233 238 245 251 258 265 275 283 288 292
301 240 225 306 204 181 187 248 275 273 258 273 285 286 283 282 279 273 270 268 265 263 256 251 247 244 243 239 238 237 234 232 231 230 230 230 230 231 232 234 237 241 245 250 257 265 273 282 289
228 219 249 233 273 184 227 248 279 283 284 274 278 278 276 273 272 273 270 270 273 265 258 252 249 246 241 240 237 234 233 232 232 231 231 230 230 231 231 233 234 238 242 248 254 261 270 277 284
166 225 238 257 262 263 249 265 256 267 278 269 268 266 270 270 272 271 269 265 266 267 257 251 248 246 239 236 234 231 230 230 230 229 230 230 230 231 232 233 235 239 242 245 250 258 266 275 284
243 258 266 272 269 256 269 267 262 250 254 260 267 268 265 268 275 276 274 269 261 260 260 253 249 246 244 239 237 234 232 230 232 230 228 229 230 231 232 234 236 239 239 243 249 255 261 268 278
227 230 260 262 306 240 284 278 240 253 248 256 264 264 268 266 270 281 279 278 275 260 254 253 256 254 246 239 233 231 230 230 229 227 227 228 229 231 232 233 235 236 239 242 245 249 256 264 271
270 227 255 268 327 278 22 296 176 236 234 240 252 265 271 279 281 282 283 281 279 271 262 255 253 249 243 236 233 230 231 229 232 232 231 230 230 231 232 233 235 237 239 240 244 247 252 258 265
245 198 231 199 205 322 193 258 192 178 229 241 253 261 273 285 286 291 292 290 287 280 271 263 251 244 241 236 234 231 230 232 236 234 232 231 231 232 233 234 235 236 238 240 242 245 251 255 260
48 91 88 55 118 263 202 168 284 189 208 241 249 259 275 289 292 292 298 295 294 276 262 250 248 247 240 234 232 231 232 232 232 233 232 232 231 232 233 233 235 237 238 240 242 244 247 251 255
144 82 304 318 141 233 98 178 257 303 247 223 240 266 277 280 288 291 295 299 300 285 257 247 243 242 238 232 230 230 232 234 236 236 235 233 231 231 233 233 234 236 238 239 240 242 244 247 251
190 168 185 224 259 267 101 238 267 268 268 263 268 272 287 295 308 312 307 299 294 283 252 247 245 241 238 234 230 228 230 233 235 237 237 237 237 238 238 237 237 238 239 240 240 241 242 244 246
169 188 240 272 347 294 248 270 293 277 286 231 278 303 312 338 354 349 343 312 283 268 251 245 246 245 243 238 232 230 230 232 233 235 236 237 239 241 241 239 239 238 238 239 240 240 242 242 244
197 297 287 156 245 246 220 241 251 282 270 271 325 298 306 320 350 357 356 340 301 281 268 255 256 255 251 243 238 235 233 234 236 236 236 238 239 240 241 239 236 235 235 237 238 239 239 239 241
232 245 222 252 209 251 258 253 231 261 269 298 274 270 296 315 318 322 350 346 322 298 288 278 263 258 256 253 245 240 240 238 240 241 241 241 241 241 241 240 236 233 232 234 235 237 237 238 239
229 239 237 241 256 245 258 251 255 264 280 290 286 292 301 302 295 308 329 325 323 317 306 289 270 258 254 253 251 249 247 244 241 242 244 246 246 244 243 241 237 234 232 233 233 233 234 235 237